timestamp,wind_dir_avg,wind_spd_avg,wind_spd_max_dir,wind_spd_gust,battery_voltage,lat,long
2023-03-29 00:04:00+00:00,32.0,6.82,34.0,7.49,12.33,47.59359,-54.27349
2023-03-29 00:14:00+00:00,35.0,7.05,56.0,9.55,12.25,47.59359,-54.27349
2023-03-29 00:24:00+00:00,33.0,6.54,36.0,7.22,12.25,47.59359,-54.27349
2023-03-29 00:34:00+00:00,31.0,5.72,31.0,6.53,12.25,47.59359,-54.27349
2023-03-29 00:44:00+00:00,29.0,5.64,26.0,6.37,12.25,47.59359,-54.27349
2023-03-29 00:54:00+00:00,28.0,9.09,37.0,10.35,12.25,47.59359,-54.27349
2023-03-29 01:04:00+00:00,28.0,8.79,39.0,10.53,12.25,47.59359,-54.27349
2023-03-29 01:14:00+00:00,26.0,8.72,48.0,11.93,12.25,47.59359,-54.27349
2023-03-29 01:24:00+00:00,28.0,8.72,41.0,10.28,12.25,47.59359,-54.27349
2023-03-29 01:34:00+00:00,36.0,9.52,48.0,12.24,12.25,47.59359,-54.27349
2023-03-29 01:44:00+00:00,31.0,7.08,35.0,8.06,12.25,47.59359,-54.27349
2023-03-29 01:54:00+00:00,27.0,6.32,29.0,6.88,12.25,47.59359,-54.27349
2023-03-29 02:04:00+00:00,26.0,5.63,28.0,6.34,12.25,47.59359,-54.27349
2023-03-29 02:14:00+00:00,27.0,7.94,29.0,9.13,12.25,47.59359,-54.27349
2023-03-29 02:24:00+00:00,30.0,6.93,30.0,7.79,12.25,47.59359,-54.27349
2023-03-29 02:34:00+00:00,24.0,7.72,22.0,9.04,12.25,47.59359,-54.27349
2023-03-29 02:44:00+00:00,23.0,7.16,25.0,7.79,12.25,47.59359,-54.27349
2023-03-29 02:54:00+00:00,17.0,7.58,25.0,9.06,12.25,47.59359,-54.27349
2023-03-29 03:04:00+00:00,13.0,6.54,8.0,7.8,12.25,47.59359,-54.27349
2023-03-29 03:14:00+00:00,12.0,7.19,13.0,9.47,12.17,47.59359,-54.27349
2023-03-29 03:24:00+00:00,9.0,5.77,4.0,6.71,12.17,47.59359,-54.27349
2023-03-29 03:34:00+00:00,14.0,7.38,15.0,8.83,12.17,47.59359,-54.27349
2023-03-29 03:44:00+00:00,4.0,7.67,2.0,8.64,12.17,47.59359,-54.27349
2023-03-29 03:54:00+00:00,6.0,8.45,2.0,9.21,12.17,47.59359,-54.27349
2023-03-29 04:04:00+00:00,357.0,8.85,355.0,9.8,12.17,47.59359,-54.27349
2023-03-29 04:14:00+00:00,356.0,7.82,355.0,8.82,12.17,47.59359,-54.27349
2023-03-29 04:24:00+00:00,353.0,7.9,351.0,8.81,12.17,47.59359,-54.27349
2023-03-29 04:34:00+00:00,359.0,6.58,356.0,7.43,12.17,47.59359,-54.27349
2023-03-29 04:44:00+00:00,8.0,6.58,2.0,7.55,12.17,47.59359,-54.27349
2023-03-29 04:54:00+00:00,3.0,6.48,2.0,7.88,12.17,47.59359,-54.27349
2023-03-29 05:04:00+00:00,4.0,6.83,6.0,7.4,12.17,47.59359,-54.27349
2023-03-29 05:14:00+00:00,10.0,6.65,10.0,7.61,12.17,47.59359,-54.27349
2023-03-29 05:24:00+00:00,3.0,6.5,5.0,7.57,12.17,47.59359,-54.27349
2023-03-29 05:34:00+00:00,357.0,7.51,3.0,8.46,12.17,47.59359,-54.27349
2023-03-29 05:44:00+00:00,3.0,6.35,358.0,8.02,12.17,47.59359,-54.27349
2023-03-29 05:54:00+00:00,3.0,7.29,1.0,8.15,12.17,47.59359,-54.27349
2023-03-29 06:04:00+00:00,1.0,6.01,4.0,7.26,12.17,47.59359,-54.27349
2023-03-29 06:14:00+00:00,0.0,7.37,355.0,8.44,12.17,47.59359,-54.27349
2023-03-29 06:24:00+00:00,358.0,6.98,356.0,8.22,12.17,47.59359,-54.27349
2023-03-29 06:34:00+00:00,358.0,7.3,357.0,8.65,12.17,47.59359,-54.27349
2023-03-29 06:44:00+00:00,0.0,7.48,356.0,8.37,12.17,47.59359,-54.27349
2023-03-29 06:54:00+00:00,353.0,6.54,357.0,7.16,12.17,47.59359,-54.27349
2023-03-29 07:04:00+00:00,350.0,6.57,346.0,7.27,12.17,47.59359,-54.27349
2023-03-29 07:14:00+00:00,359.0,6.23,5.0,6.96,12.09,47.59359,-54.27349
2023-03-29 07:24:00+00:00,353.0,5.6,356.0,6.19,12.09,47.59359,-54.27349
2023-03-29 07:34:00+00:00,1.0,7.05,359.0,7.89,12.09,47.59359,-54.27349
2023-03-29 07:44:00+00:00,354.0,6.33,354.0,7.06,12.09,47.59359,-54.27349
2023-03-29 07:54:00+00:00,5.0,7.3,8.0,8.97,12.09,47.59359,-54.27349
2023-03-29 08:04:00+00:00,1.0,6.58,358.0,7.47,12.09,47.59359,-54.27349
2023-03-29 08:14:00+00:00,355.0,7.15,356.0,7.67,12.09,47.59359,-54.27349
2023-03-29 08:24:00+00:00,1.0,7.0,5.0,8.24,12.09,47.59359,-54.27349
2023-03-29 08:34:00+00:00,11.0,7.16,9.0,8.54,12.09,47.59359,-54.27349
2023-03-29 08:44:00+00:00,6.0,7.45,4.0,8.27,12.09,47.59359,-54.27349
2023-03-29 08:54:00+00:00,16.0,9.09,20.0,10.59,12.09,47.59359,-54.27349
2023-03-29 09:04:00+00:00,10.0,8.48,11.0,10.31,12.09,47.59359,-54.27349
2023-03-29 09:14:00+00:00,11.0,8.0,10.0,9.06,12.09,47.59359,-54.27349
2023-03-29 09:24:00+00:00,15.0,6.89,13.0,7.74,12.09,47.59359,-54.27349
2023-03-29 09:34:00+00:00,7.0,6.97,4.0,8.42,12.09,47.59359,-54.27349
2023-03-29 09:44:00+00:00,9.0,7.5,18.0,8.98,12.09,47.59359,-54.27349
2023-03-29 09:54:00+00:00,17.0,6.36,14.0,7.29,12.09,47.59359,-54.27349
2023-03-29 10:04:00+00:00,21.0,7.5,19.0,9.19,12.09,47.59359,-54.27349
2023-03-29 10:14:00+00:00,16.0,5.75,23.0,7.49,12.41,47.59359,-54.27349
2023-03-29 10:24:00+00:00,11.0,8.97,9.0,10.3,12.41,47.59359,-54.27349
2023-03-29 10:34:00+00:00,14.0,9.12,12.0,10.62,12.41,47.59359,-54.27349
2023-03-29 10:44:00+00:00,14.0,9.45,11.0,10.78,12.41,47.59359,-54.27349
2023-03-29 10:54:00+00:00,5.0,10.22,6.0,13.38,12.41,47.59359,-54.27349
2023-03-29 11:04:00+00:00,358.0,10.11,355.0,11.11,12.41,47.59359,-54.27349
2023-03-29 11:14:01+00:00,352.0,10.32,349.0,12.11,13.84,47.59359,-54.27349
2023-03-29 11:24:01+00:00,1.0,8.12,4.0,9.45,13.84,47.59359,-54.27349
2023-03-29 11:34:01+00:00,3.0,7.83,358.0,8.94,13.84,47.59359,-54.27349
2023-03-29 11:44:01+00:00,359.0,9.61,0.0,10.56,13.84,47.59359,-54.27349
2023-03-29 11:54:01+00:00,353.0,9.97,351.0,10.81,13.84,47.59359,-54.27349
2023-03-29 12:04:01+00:00,358.0,9.55,359.0,10.49,13.84,47.59359,-54.27349
2023-03-29 12:14:00+00:00,2.0,9.88,0.0,10.94,14.4,47.59359,-54.27349
2023-03-29 12:24:00+00:00,0.0,9.05,357.0,10.04,14.4,47.59359,-54.27349
2023-03-29 12:34:00+00:00,354.0,9.98,350.0,10.82,14.4,47.59359,-54.27349
2023-03-29 12:44:00+00:00,1.0,8.66,6.0,10.43,14.4,47.59359,-54.27349
2023-03-29 12:54:00+00:00,4.0,8.66,9.0,9.98,14.4,47.59359,-54.27349
2023-03-29 13:04:00+00:00,1.0,7.9,3.0,8.96,14.4,47.59359,-54.27349
2023-03-29 13:14:00+00:00,354.0,6.61,356.0,7.43,14.48,47.59359,-54.27349
2023-03-29 13:24:00+00:00,357.0,7.54,357.0,8.4,14.48,47.59359,-54.27349
2023-03-29 13:34:00+00:00,7.0,7.6,1.0,8.77,14.48,47.59359,-54.27349
2023-03-29 13:44:00+00:00,15.0,6.25,14.0,7.43,14.48,47.59359,-54.27349
2023-03-29 13:54:00+00:00,17.0,6.6,17.0,7.28,14.48,47.59359,-54.27349
2023-03-29 14:04:00+00:00,4.0,6.56,6.0,7.34,14.48,47.59359,-54.27349
2023-03-29 14:14:00+00:00,10.0,6.24,2.0,7.91,14.48,47.59359,-54.27349
2023-03-29 14:24:00+00:00,16.0,6.1,15.0,7.57,14.48,47.59359,-54.27349
2023-03-29 14:34:00+00:00,6.0,5.66,359.0,7.35,14.48,47.59359,-54.27349
2023-03-29 14:44:00+00:00,15.0,5.92,18.0,7.13,14.48,47.59359,-54.27349
2023-03-29 14:54:00+00:00,0.0,5.94,358.0,6.82,14.48,47.59359,-54.27349
2023-03-29 15:04:00+00:00,3.0,5.62,5.0,7.39,14.48,47.59359,-54.27349
2023-03-29 15:14:00+00:00,20.0,5.14,18.0,6.13,13.76,47.59359,-54.27349
2023-03-29 15:24:00+00:00,29.0,4.04,30.0,4.34,13.76,47.59359,-54.27349
2023-03-29 15:34:00+00:00,27.0,4.36,35.0,5.27,13.76,47.59359,-54.27349
2023-03-29 15:44:00+00:00,35.0,3.44,31.0,3.81,13.76,47.59359,-54.27349
2023-03-29 15:54:00+00:00,40.0,4.18,39.0,4.45,13.76,47.59359,-54.27349
2023-03-29 16:04:00+00:00,23.0,5.87,24.0,6.53,13.76,47.59359,-54.27349
2023-03-29 16:14:00+00:00,26.0,6.39,32.0,7.35,13.76,47.59359,-54.27349
2023-03-29 16:24:00+00:00,17.0,6.36,18.0,7.34,13.76,47.59359,-54.27349
2023-03-29 16:34:00+00:00,20.0,6.19,20.0,7.03,13.76,47.59359,-54.27349
2023-03-29 16:44:00+00:00,18.0,6.35,16.0,7.14,13.76,47.59359,-54.27349
2023-03-29 16:54:00+00:00,10.0,5.56,3.0,6.68,13.76,47.59359,-54.27349
2023-03-29 17:04:00+00:00,7.0,4.83,2.0,5.95,13.76,47.59359,-54.27349
2023-03-29 17:14:00+00:00,2.0,5.44,3.0,6.5,13.6,47.59359,-54.27349
2023-03-29 17:24:00+00:00,21.0,6.18,22.0,6.93,13.6,47.59359,-54.27349
2023-03-29 17:34:00+00:00,9.0,5.89,15.0,6.86,13.6,47.59359,-54.27349
2023-03-29 17:44:00+00:00,0.0,5.46,1.0,6.01,13.6,47.59359,-54.27349
2023-03-29 17:54:00+00:00,359.0,7.32,359.0,8.22,13.6,47.59359,-54.27349
2023-03-29 18:04:00+00:00,353.0,7.75,351.0,8.93,13.6,47.59359,-54.27349
2023-03-29 18:14:00+00:00,355.0,6.38,358.0,6.93,13.68,47.59359,-54.27349
2023-03-29 18:24:00+00:00,356.0,6.7,355.0,7.33,13.68,47.59359,-54.27349
2023-03-29 18:34:00+00:00,359.0,6.37,1.0,7.09,13.68,47.59359,-54.27349
2023-03-29 18:44:00+00:00,353.0,6.03,356.0,7.24,13.68,47.59359,-54.27349
2023-03-29 18:54:00+00:00,359.0,6.29,3.0,7.11,13.68,47.59359,-54.27349
2023-03-29 19:04:00+00:00,13.0,7.86,12.0,8.58,13.68,47.59359,-54.27349
2023-03-29 19:14:00+00:00,21.0,6.06,24.0,6.9,13.6,47.59359,-54.27349
2023-03-29 19:24:00+00:00,15.0,7.74,15.0,8.72,13.6,47.59359,-54.27349
2023-03-29 19:34:00+00:00,15.0,6.53,14.0,7.44,13.6,47.59359,-54.27349
2023-03-29 19:44:00+00:00,17.0,5.09,22.0,5.92,13.6,47.59359,-54.27349
2023-03-29 19:54:00+00:00,10.0,5.03,8.0,5.65,13.6,47.59359,-54.27349
2023-03-29 20:04:00+00:00,4.0,6.22,0.0,6.94,13.6,47.59359,-54.27349
2023-03-29 20:14:00+00:00,11.0,5.26,2.0,6.12,13.68,47.59359,-54.27349
2023-03-29 20:24:00+00:00,18.0,6.79,19.0,7.52,13.68,47.59359,-54.27349
2023-03-29 20:34:00+00:00,23.0,4.7,17.0,5.71,13.68,47.59359,-54.27349
2023-03-29 20:44:00+00:00,7.0,6.47,13.0,7.43,13.68,47.59359,-54.27349
2023-03-29 20:54:00+00:00,4.0,6.28,9.0,7.34,13.68,47.59359,-54.27349
2023-03-29 21:04:00+00:00,10.0,5.48,4.0,6.89,13.68,47.59359,-54.27349
2023-03-29 21:14:00+00:00,15.0,6.07,12.0,6.76,13.29,47.59359,-54.27349
2023-03-29 21:24:00+00:00,19.0,5.01,24.0,5.54,13.29,47.59359,-54.27349
2023-03-29 21:34:00+00:00,12.0,4.32,20.0,5.09,13.29,47.59359,-54.27349
2023-03-29 21:44:00+00:00,12.0,4.12,15.0,5.13,13.29,47.59359,-54.27349
2023-03-29 21:54:00+00:00,11.0,4.44,14.0,4.98,13.29,47.59359,-54.27349
2023-03-29 22:04:00+00:00,9.0,3.86,11.0,4.84,13.29,47.59359,-54.27349
2023-03-29 22:14:00+00:00,15.0,3.84,16.0,4.46,12.89,47.59359,-54.27349
2023-03-29 22:24:00+00:00,20.0,4.49,22.0,4.98,12.89,47.59359,-54.27349
2023-03-29 22:34:00+00:00,22.0,4.01,24.0,4.43,12.89,47.59359,-54.27349
2023-03-29 22:44:00+00:00,22.0,3.52,23.0,3.89,12.89,47.59359,-54.27349
2023-03-29 22:54:00+00:00,14.0,3.37,15.0,3.63,12.89,47.59359,-54.27349
2023-03-29 23:04:00+00:00,3.0,3.45,5.0,3.82,12.89,47.59359,-54.27349
2023-03-29 23:14:00+00:00,0.0,3.31,0.0,3.51,12.41,47.59359,-54.27349
2023-03-29 23:24:00+00:00,345.0,3.54,341.0,3.91,12.41,47.59359,-54.27349
2023-03-29 23:34:00+00:00,29.0,3.24,35.0,3.65,12.41,47.59359,-54.27349
2023-03-29 23:44:00+00:00,22.0,3.29,34.0,3.66,12.41,47.59359,-54.27349
2023-03-29 23:54:00+00:00,4.0,3.11,33.0,3.62,12.41,47.59359,-54.27349
